Regional Weather Roundup
Issued by NWS

Home | Current Version | Previous Version | Text Only | Print | Product List | Glossary Off
Versions: 1 2 3 4 5 6 7 8 9 10 11 12 13 14 15 16 17 18 19 20 21 22 23 24 25 26 27 28 29 30 31 32 33 34 35 36 37 38 39 40 41 42 43 44 45 46 47 48 49 50

440
ASUS43 KOAX 181410
RWRNE

WEATHER ROUNDUP FOR NEBRASKA
NATIONAL WEATHER SERVICE OMAHA NE
900 AM CDT WED OCT 18 2017

NOTES: SATELLITE DATA IS BEING USED TO AUGMENT CLOUD COVER ABOVE
       12000 FEET.
       "FAIR" INDICATES FEW OR NO CLOUDS BELOW 12,000 FEET WITH NO
       SIGNIFICANT WEATHER AND/OR OBSTRUCTIONS TO VISIBILITY.


NEZ001>004-019>022-054>056-181500-
NEBRASKA PANHANDLE

CITY           SKY/WX    TMP DP  RH WIND       PRES   REMARKS
SCOTTSBLUFF    CLOUDY    46  23  40 N3        30.01R
ALLIANCE       CLOUDY    38  25  59 W6        30.00R WCI  33
CHADRON        CLEAR     39  24  55 N8        30.02R WCI  33
GORDON         FAIR      52  25  35 NW8       29.98R
KIMBALL        CLEAR     52  20  28 W12       30.08R
SIDNEY         CLOUDY    50  23  34 W12       30.05R
$$

NEZ057>060-069>072-079>082-181500-
SOUTHWEST NEBRASKA

CITY           SKY/WX    TMP DP  RH WIND       PRES   REMARKS
NORTH PLATTE   CLOUDY    43  36  76 NW7       29.94R
IMPERIAL       CLOUDY    49  29  46 W8        29.98R
LEXINGTON      CLOUDY    48  40  75 NW7       29.93R
MCCOOK         MOSUNNY   46  36  68 W12       29.95R
OGALLALA       CLOUDY    41  31  68 W6        29.98R
$$

NEZ005>010-023>029-035>040-094-181500-
NORTH CENTRAL NEBRASKA

CITY           SKY/WX    TMP DP  RH WIND       PRES   REMARKS
VALENTINE      CLEAR     51  29  42 W7        29.90R
AINSWORTH      SUNNY     54  30  38 NW10      29.88R
BROKEN BOW     MOSUNNY   58  32  37 W12       29.88R
O`NEILL        MOSUNNY   53  37  56 W8        29.83R
ORD            SUNNY     47  41  80 CALM      29.85R
THEDFORD       SUNNY     51  30  44 W12       29.92R
$$

NEZ041-046>049-061>064-073>077-083>087-181500-
SOUTH CENTRAL NEBRASKA

CITY           SKY/WX    TMP DP  RH WIND       PRES   REMARKS
GRAND ISLAND   MOSUNNY   51  44  77 S10       29.90R
AURORA         MOSUNNY   49  43  80 S12       29.90S
HASTINGS       MOSUNNY   49  41  74 S9        29.92S
HEBRON         MOSUNNY   51  46  82 S7        29.95S
HOLDREGE       MOSUNNY   51  43  74 SW7       29.93R
KEARNEY        MOSUNNY   50  43  77 SW8       29.91R
YORK           PTSUNNY   48  46  93 S10       29.92S
$$

NEZ011>018-030>034-042>045-181500-
NORTHEAST NEBRASKA

CITY           SKY/WX    TMP DP  RH WIND       PRES   REMARKS
NORFOLK        SUNNY     52  44  74 S12       29.83R
ALBION         MOSUNNY   50  44  79 S6        29.86S
BLAIR          SUNNY     52  46  79 S15       29.91F
COLUMBUS       MOSUNNY   54  44  69 S12       29.89S
FREMONT        SUNNY     53  45  73 S10       29.91S
TEKAMAH        MOSUNNY   52  46  80 S7        29.89F
WAYNE          SUNNY     53  46  75 S14       29.83S
$$

NEZ050>053-065>068-078-088>093-181500-
SOUTHEAST NEBRASKA

CITY           SKY/WX    TMP DP  RH WIND       PRES   REMARKS
LINCOLN        SUNNY     55  47  74 S8        29.94F
OMAHA EPPLEY   MOSUNNY   52  45  77 S12       29.94R
BEATRICE       CLOUDY    53  46  78 S10       29.96R
FALLS CITY     SUNNY     54  45  71 S9        29.99S
NEBRASKA CITY  SUNNY     52  48  87 S10       29.97R
PLATTSMOUTH    SUNNY     51  47  85 S10       29.95R
$$

NEZ044-045-051>053-067-181500-
OMAHA AREA

CITY           SKY/WX    TMP DP  RH WIND       PRES   REMARKS
OMAHA EPPLEY   MOSUNNY   52  45  77 S12       29.94R
BLAIR          SUNNY     52  46  79 S15       29.91F
FREMONT        SUNNY     53  45  73 S10       29.91S
MILLARD        SUNNY     53  47  79 SE7       29.94S
OFFUTT AFB     SUNNY     50  46  86 E3        29.94S
PLATTSMOUTH    SUNNY     51  47  85 S10       29.95R
WAHOO          FAIR      51  47  84 S6        29.92S
$$




USA.gov is the U.S. government's official web portal to all federal, state and local government web resources and services.